Weather History for Springfield, IL

Change the Weather History Date:

Saturday, April 14, 2012

  Actual Average Record
Temperature  
Mean Temperature 62 °F 53 °F  
Max Temperature 71 °F 64 °F 89 °F (2006)
Min Temperature 52 °F 42 °F 23 °F (1950)
Degree Days  
Heating Degree Days 3 13  
Month to date heating degree days 139 208  
Since 1 July heating degree days 3944 5190  
Cooling Degree Days 0 1  
Month to date cooling degree days 21 3  
Year to date cooling degree days 72 5  
Growing Degree Days 10 (Base 50)    
Moisture  
Dew Point 57 °F    
Average Humidity 87    
Maximum Humidity 100    
Minimum Humidity 73    
Precipitation  
Precipitation 0.78 in 0.11 in 1.34 in (1991)
Month to date precipitation 1.06 1.50  
Year to date precipitation 5.81 7.76  
Snow  
Snow 0.00 in 0.00 in 6.10 in (1980)
Month to date snowfall 0.0 0.2  
Since 1 July snowfall 9.2 20.8  
Snow Depth 0.00 in    
Sea Level Pressure  
Sea Level Pressure 29.91 in    
Wind  
Wind Speed 12 mph (South)    
Max Wind Speed 23 mph    
Max Gust Speed 31 mph    
Visibility 8 miles    
Events Rain , Thunderstorm    
T = Trace of Precipitation, MM = Missing Value Source: NWS Daily Summary

Daily Weather History Graph

Daily Weather History Graph

Search for Another Location

Airport:

Trip Planner

Search our weather history database for the weather conditions in past years. The results will help you decide how hot, cold, wet, or windy it might be!

Date:

Astronomy

Apr. 14, 2012 Rise Set
Actual Time 6:21 AM CDT 7:36 PM CDT
Civil Twilight 5:53 AM CDT 8:04 PM CDT
Nautical Twilight 5:20 AM CDT 8:38 PM CDT
Astronomical Twilight 4:45 AM CDT 9:13 PM CDT
Moon 2:44 AM CDT (4/14) 1:30 PM CDT (4/14)
Length of Visible Light 14h 10m
Length of Day
13h 14m
Last Quarter, 37% of the Moon is Illuminated
Apr 14
Last Quarter
Apr 21
New
Apr 29
First Quarter
May 5
Full
May 12
Last Quarter

Hourly Weather History & Observations

Time (CDT) Temp. Dew Point Humidity Pressure Visibility Wind Dir Wind Speed Gust Speed Precip Events Conditions
12:52 AM 52.0 °F 46.0 °F 80% 30.00 in 10.0 mi South 10.4 mph - N/A   Clear
1:23 AM 51.8 °F 46.4 °F 82% 30.01 in 10.0 mi South 8.1 mph - N/A   Mostly Cloudy
1:52 AM 52.0 °F 46.0 °F 80% 30.00 in 10.0 mi SSE 4.6 mph - N/A   Overcast
2:09 AM 51.8 °F 46.4 °F 82% 29.99 in 10.0 mi South 8.1 mph - N/A   Mostly Cloudy
2:52 AM 53.1 °F 48.9 °F 86% 29.97 in 10.0 mi SSE 8.1 mph - N/A   Clear
3:52 AM 59.0 °F 54.0 °F 83% 29.95 in 10.0 mi South 16.1 mph - N/A   Partly Cloudy
4:52 AM 57.9 °F 54.0 °F 87% 29.95 in 10.0 mi South 13.8 mph - N/A   Overcast
5:52 AM 57.9 °F 54.0 °F 87% 29.94 in 10.0 mi South 9.2 mph - N/A Thunderstorm Thunderstorm
6:47 AM 57.2 °F 53.6 °F 88% 29.95 in 9.0 mi South 13.8 mph - 0.01 in Rain Light Rain
6:52 AM 57.0 °F 54.0 °F 89% 29.95 in 8.0 mi South 12.7 mph - 0.01 in Rain Light Rain
7:52 AM 57.0 °F 55.0 °F 93% 29.98 in 2.5 mi SSW 13.8 mph - 0.21 in Rain Rain
8:52 AM 57.0 °F 55.9 °F 96% 29.96 in 2.0 mi South 13.8 mph - 0.26 in Rain Rain
9:23 AM 57.2 °F 55.4 °F 94% 29.96 in 2.5 mi SW 5.8 mph - 0.09 in Rain Rain
9:52 AM 57.9 °F 57.0 °F 97% 29.96 in 2.5 mi SSW 6.9 mph - 0.14 in Rain Rain
10:18 AM 59.0 °F 57.2 °F 94% 29.95 in 4.0 mi South 6.9 mph - 0.04 in Rain Rain
10:52 AM 60.1 °F 57.9 °F 93% 29.96 in 7.0 mi SSW 11.5 mph - 0.08 in Rain Light Rain
11:52 AM 61.0 °F 59.0 °F 93% 29.96 in 10.0 mi South 6.9 mph - 0.00 in   Overcast
12:52 PM 60.1 °F 57.9 °F 93% 29.96 in 6.0 mi SSW 11.5 mph - 0.05 in Rain Light Rain
1:52 PM 61.0 °F 59.0 °F 93% 29.92 in 7.0 mi South 3.5 mph - 0.03 in Rain Light Rain
2:52 PM 63.0 °F 61.0 °F 93% 29.88 in 10.0 mi South 10.4 mph - 0.00 in   Overcast
3:25 PM 66.2 °F 62.6 °F 88% 29.87 in 10.0 mi South 15.0 mph - N/A   Scattered Clouds
3:52 PM 69.1 °F 63.0 °F 81% 29.85 in 10.0 mi South 11.5 mph - N/A   Clear
4:52 PM 69.8 °F 62.6 °F 78% 29.84 in 10.0 mi South 12.7 mph - N/A   Clear
5:52 PM 69.1 °F 62.1 °F 78% 29.83 in 10.0 mi South 15.0 mph - N/A   Clear
6:52 PM 66.9 °F 62.1 °F 84% 29.83 in 10.0 mi South 9.2 mph - N/A   Clear
7:52 PM 64.9 °F 62.1 °F 90% 29.81 in 9.0 mi SSE 10.4 mph - N/A   Clear
8:52 PM 64.9 °F 62.1 °F 90% 29.81 in 7.0 mi SE 10.4 mph - N/A   Mostly Cloudy
9:52 PM 66.0 °F 62.1 °F 87% 29.79 in 9.0 mi SSE 12.7 mph - 0.00 in   Overcast
10:52 PM 68.0 °F 61.0 °F 78% 29.77 in 10.0 mi South 16.1 mph - N/A   Overcast
11:52 PM 69.1 °F 60.1 °F 73% 29.74 in 10.0 mi South 18.4 mph 27.6 mph N/A   Clear